Weather History for KEYW - March, 2013

Change the Weather History Date:

Friday, March 15, 2013

  Actual Average Record
Temperature  
Mean Temperature 64 °F 73 °F  
Max Temperature 71 °F 78 °F 86 °F (1964)
Min Temperature 56 °F 68 °F 53 °F (1993)
Degree Days  
Heating Degree Days 1 0  
Month to date heating degree days 12 0  
Since 1 July heating degree days 24 66  
Cooling Degree Days 0 8  
Month to date cooling degree days 48 119  
Year to date cooling degree days 582 467  
Growing Degree Days 13 (Base 50)    
Moisture  
Dew Point 48 °F    
Average Humidity 55    
Maximum Humidity 73    
Minimum Humidity 37    
Precipitation  
Precipitation 0.00 in 0.07 in 1.46 in (1904)
Month to date precipitation 0.17 1.09  
Year to date precipitation 1.71 4.62  
Snow  
Snow 0.00 in - - ()
Month to date snowfall 0.0  
Since 1 July snowfall 0.0  
Snow Depth 0.00 in    
Sea Level Pressure  
Sea Level Pressure 30.20 in    
Wind  
Wind Speed 9 mph (NNE)    
Max Wind Speed 18 mph    
Max Gust Speed 24 mph    
Visibility 10 miles    
Events      
T = Trace of Precipitation, MM = Missing Value Source: NWS Daily Summary

Daily Weather History Graph

Daily Weather History Graph

Search for Another Location

Airport or City:

Trip Planner

Search our weather history database for the weather conditions in past years. The results will help you decide how hot, cold, wet, or windy it might be!

Date:

Astronomy

Mar. 15, 2013 Rise Set
Actual Time 7:35 AM EDT 7:36 PM EDT
Civil Twilight 7:13 AM EDT 7:58 PM EDT
Nautical Twilight 6:46 AM EDT 8:25 PM EDT
Astronomical Twilight 6:20 AM EDT 8:51 PM EDT
Moon 9:52 AM EDT (3/15) 11:18 PM EDT (3/15)
Length of Visible Light 12h 45m
Length of Day
12h 00m
Waxing Crescent, 15% of the Moon is Illuminated
Mar 15
Waxing Crescent
Mar 19
First Quarter
Mar 27
Full
Apr 3
Last Quarter
Apr 10
New

Hourly Weather History & Observations

Time (EDT) Temp. Dew Point Humidity Pressure Visibility Wind Dir Wind Speed Gust Speed Precip Events Conditions
12:53 AM 64.0 °F 52.0 °F 65% 30.19 in 10.0 mi NNE 6.9 mph - N/A   Clear
1:53 AM 64.0 °F 48.0 °F 56% 30.19 in 10.0 mi NNE 5.8 mph - N/A   Clear
2:53 AM 63.0 °F 48.0 °F 58% 30.18 in 10.0 mi NE 4.6 mph - N/A   Clear
3:53 AM 63.0 °F 48.0 °F 58% 30.17 in 10.0 mi NNE 9.2 mph - N/A   Clear
4:53 AM 57.2 °F 48.2 °F 72% 30.18 in 10.0 mi NNE 8.1 mph - N/A   Clear
5:53 AM 62.1 °F 46.0 °F 56% 30.19 in 10.0 mi NE 8.1 mph - N/A   Clear
6:53 AM 62.1 °F 46.0 °F 56% 30.21 in 10.0 mi NE 10.4 mph 18.4 mph N/A   Clear
7:53 AM 62.6 °F 46.4 °F 55% 30.23 in 10.0 mi NE 9.2 mph - N/A   Clear
8:53 AM 62.1 °F 45.0 °F 53% 30.24 in 10.0 mi NE 12.7 mph 21.9 mph N/A   Clear
9:53 AM 64.0 °F 45.0 °F 50% 30.26 in 10.0 mi NE 13.8 mph 24.2 mph N/A   Clear
10:53 AM 64.9 °F 45.0 °F 48% 30.27 in 10.0 mi NE 12.7 mph 21.9 mph N/A   Clear
11:53 AM 66.0 °F 45.0 °F 47% 30.26 in 10.0 mi NNE 15.0 mph 21.9 mph N/A   Clear
12:53 PM 68.0 °F 45.0 °F 43% 30.25 in 10.0 mi NNE 15.0 mph 19.6 mph N/A   Clear
1:53 PM 69.1 °F 43.0 °F 39% 30.22 in 10.0 mi NE 12.7 mph - N/A   Clear
2:53 PM 70.0 °F 46.9 °F 44% 30.20 in 10.0 mi NNE 9.2 mph - N/A   Clear
3:53 PM 70.0 °F 48.0 °F 46% 30.18 in 10.0 mi NNE 9.2 mph - N/A   Clear
4:53 PM 70.0 °F 48.0 °F 46% 30.17 in 10.0 mi NNE 11.5 mph - N/A   Clear
5:53 PM 70.0 °F 48.0 °F 46% 30.16 in 10.0 mi NNE 8.1 mph - N/A   Clear
6:53 PM 69.1 °F 46.9 °F 45% 30.17 in 10.0 mi NNE 8.1 mph - N/A   Clear
7:53 PM 66.0 °F 50.0 °F 56% 30.16 in 10.0 mi NNE 3.5 mph - N/A   Clear
8:53 PM 64.9 °F 50.0 °F 58% 30.17 in 10.0 mi Calm Calm - N/A   Clear
9:53 PM 64.9 °F 52.0 °F 63% 30.18 in 10.0 mi NNE 4.6 mph - N/A   Clear
10:53 PM 64.9 °F 55.0 °F 70% 30.19 in 10.0 mi NNE 4.6 mph - N/A   Clear
11:53 PM 64.9 °F 55.0 °F 70% 30.19 in 10.0 mi NNE 4.6 mph - N/A   Partly Cloudy